Overview Statistics Trail Chart Weather Telemetry Raw packets
 

This is the latest recevied weather packets stored in our database for station/object YO3FNC-10. If no packets are shown the sender has not sent any weather packets the latest 10 day(s).

<< 13 14 15 16 17 18 19 >>
Time Temp. Humidity Pressure Rain* Wind** Luminosity Snow
1788239738 28.89° C 32% 1017.1 hPa - - - -
1788238838 28.33° C 32% 1016.8 hPa - - - -
1788237937 27.78° C 32% 1016.7 hPa - - - -
1788237037 27.78° C 33% 1016.5 hPa - - - -
1788236137 28.89° C 31% 1016.4 hPa - - - -
1788235237 29.44° C 30% 1016.4 hPa - - - -
1788234337 29.44° C 31% 1016.5 hPa - - - -
1788233437 29.44° C 30% 1016.3 hPa - - - -
1788232537 29.44° C 30% 1016.2 hPa - - - -
1788231637 29.44° C 30% 1016.3 hPa - - - -
1788230736 29.44° C 31% 1016.3 hPa - - - -
1788229836 29.44° C 31% 1016.4 hPa - - - -
1788228935 29.44° C 31% 1016.5 hPa - - - -
1788228035 29.44° C 31% 1016.4 hPa - - - -
1788227135 30° C 30% 1016.6 hPa - - - -
1788226235 30° C 29% 1016.8 hPa - - - -
1788225335 30° C 29% 1016.9 hPa - - - -
1788224435 30° C 29% 1016.9 hPa - - - -
1788223535 30.56° C 29% 1016.8 hPa - - - -
1788222634 30° C 28% 1017 hPa - - - -
1788221734 30.56° C 29% 1017 hPa - - - -
1788220834 30° C 29% 1017.1 hPa - - - -
1788219934 30.56° C 29% 1017 hPa - - - -
1788219034 30.56° C 29% 1017.1 hPa - - - -
1788218134 30.56° C 30% 1017 hPa - - - -

* Rain since midnight (hover to see other rain measurements)
** Current wind speed in m/s (hover to see current wind gust speed)